This is the latest recevied weather packets stored in our database for station/object W5CDN. If no packets are shown the sender has not sent any weather packets the latest 10 day(s).
| Time | Temp. | Humidity | Pressure | Rain* | Wind** | Luminosity | Snow |
|---|---|---|---|---|---|---|---|
| 1788272336 | 28.33° C | 73% | 1016.9 hPa | 0 mm | - | - | - |
| 1788272036 | 28.89° C | 74% | 1016.7 hPa | 0 mm | - | - | - |
| 1788271736 | 28.89° C | 75% | 1016.9 hPa | 0 mm | - | - | - |
| 1788271436 | 28.89° C | 76% | 1016.9 hPa | 0 mm | - | - | - |
| 1788271136 | 28.89° C | 77% | 1016.9 hPa | 0 mm | - | - | - |
| 1788270836 | 28.33° C | 79% | 1016.9 hPa | 0 mm | - | - | - |
| 1788270536 | 28.33° C | 78% | 1017 hPa | 0 mm | - | - | - |
| 1788270236 | 28.33° C | 79% | 1017.1 hPa | 0 mm | - | - | - |
| 1788269936 | 28.33° C | 79% | 1017.1 hPa | 0 mm | - | - | - |
| 1788269636 | 27.78° C | 80% | 1017 hPa | 0 mm | - | - | - |
| 1788269336 | 27.78° C | 80% | 1016.9 hPa | 0 mm | - | - | - |
| 1788269036 | 27.78° C | 81% | 1017 hPa | 0 mm | - | - | - |
| 1788268736 | 27.22° C | 81% | 1017.1 hPa | 0 mm | - | - | - |
| 1788268436 | 27.22° C | 81% | 1017 hPa | 0 mm | - | - | - |
| 1788268160 | 26.67° C | 83% | 1017 hPa | 0 mm | - | - | - |
| 1788267836 | 26.67° C | 83% | 1016.8 hPa | 0 mm | - | - | - |
| 1788267536 | 26.67° C | 83% | 1016.8 hPa | 0 mm | - | - | - |
| 1788267236 | 26.11° C | 84% | 1016.9 hPa | 0 mm | - | - | - |
| 1788266936 | 26.11° C | 84% | 1016.8 hPa | 0 mm | - | - | - |
| 1788266636 | 26.11° C | 84% | 1016.6 hPa | 0 mm | - | - | - |
| 1788266336 | 26.11° C | 84% | 1016.6 hPa | 0 mm | - | - | - |
| 1788266036 | 25.56° C | 85% | 1016.6 hPa | 0 mm | - | - | - |
| 1788265736 | 25° C | 87% | 1016.5 hPa | 0 mm | - | - | - |
| 1788265436 | 24.44° C | 88% | 1016.5 hPa | 0 mm | - | - | - |
| 1788265136 | 24.44° C | 89% | 1016.7 hPa | 0 mm | - | - | - |
* Rain latest hour (hover to see other rain measurements)
** Current wind speed in m/s (hover to see current wind gust speed)